Monterey, CA

8:30 PM PDT on September 30, 2016 (GMT -0700)
Monterey Peninsula

Weather History for KMRY - May, 2014

Change the Weather History Date:

Friday, May 9, 2014

  Actual Average Record
Temperature  
Mean Temperature 60 °F 56 °F  
Max Temperature 65 °F 63 °F 65 °F (2001)
Min Temperature 54 °F 49 °F 43 °F (1999)
Degree Days  
Heating Degree Days 5    
Month to date heating degree days 46  
Since 1 July heating degree days 2317  
Cooling Degree Days 0    
Month to date cooling degree days 8  
Year to date cooling degree days 21  
Growing Degree Days 10 (Base 50)    
Moisture  
Dew Point 51 °F    
Average Humidity 73    
Maximum Humidity 93    
Minimum Humidity 52    
Precipitation  
Precipitation 0.02 in - 0.06 in (2005)
Month to date precipitation 0.02  
Year to date precipitation 7.22  
Since 1 July precipitation 8.50  
Sea Level Pressure  
Sea Level Pressure 30.18 in    
Wind  
Wind Speed 9 mph (WSW)    
Max Wind Speed 18 mph    
Max Gust Speed 23 mph    
Visibility 8 miles    
Events Rain    
T = Trace of Precipitation, MM = Missing Value Source: NWS Daily Summary

Daily Weather History Graph

Daily Weather History Graph

Search for Another Location

Airport or City:

Trip Planner

Search our weather history database for the weather conditions in past years. The results will help you decide how hot, cold, wet, or windy it might be!

Date:

Astronomy

May. 09, 2014 Rise Set
Actual Time 6:05 AM PDT 8:02 PM PDT
Civil Twilight 5:37 AM PDT 8:31 PM PDT
Nautical Twilight 5:02 AM PDT 9:05 PM PDT
Astronomical Twilight 4:25 AM PDT 9:42 PM PDT
Moon 3:13 PM PDT (5/9) 3:01 AM PDT (5/9)
Length of Visible Light 14h 53m
Length of Day
13h 57m
Waxing Gibbous, 74% of the Moon is Illuminated
May 9
Waxing Gibbous
May 14
Full
May 21
Last Quarter
May 28
New
Jun 5
First Quarter

Hourly Weather History & Observations

Time (PDT) Temp. Dew Point Humidity Pressure Visibility Wind Dir Wind Speed Gust Speed Precip Events Conditions
12:35 AM 59.0 °F 55.4 °F 88% 30.12 in 3.0 mi SW 6.9 mph - N/A   Overcast
12:54 AM 59.0 °F 55.9 °F 90% 30.16 in 3.0 mi SW 4.6 mph - N/A   Overcast
1:51 AM 57.2 °F 55.4 °F 94% 30.12 in 2.0 mi WSW 5.8 mph - 0.01 in Rain Light Rain
2:21 AM 57.2 °F 55.4 °F 94% 30.12 in 3.0 mi SW 4.6 mph - 0.00 in   Overcast
2:39 AM 57.2 °F 55.4 °F 94% 30.12 in 2.5 mi WSW 5.8 mph - 0.00 in Rain Light Rain
2:46 AM 57.2 °F 55.4 °F 94% 30.12 in 4.0 mi SW 4.6 mph - 0.01 in   Overcast
2:54 AM 57.9 °F 55.0 °F 90% 30.15 in 9.0 mi WSW 5.8 mph - 0.01 in   Overcast
3:54 AM 57.9 °F 55.0 °F 90% 30.16 in 10.0 mi WSW 4.6 mph - N/A   Overcast
4:54 AM 57.0 °F 55.0 °F 93% 30.17 in 9.0 mi WSW 6.9 mph - N/A   Overcast
5:54 AM 57.0 °F 54.0 °F 89% 30.18 in 10.0 mi West 6.9 mph - N/A   Overcast
6:38 AM 57.2 °F 55.4 °F 94% 30.14 in 2.5 mi WSW 4.6 mph - N/A   Overcast
6:54 AM 57.0 °F 54.0 °F 89% 30.19 in 2.5 mi WSW 5.8 mph - N/A   Overcast
7:00 AM 57.2 °F 55.4 °F 94% 30.15 in 10.0 mi WSW 4.6 mph - N/A   Overcast
7:54 AM 57.9 °F 55.0 °F 90% 30.19 in 10.0 mi WSW 5.8 mph - N/A   Overcast
8:28 AM 57.2 °F 55.4 °F 94% 30.16 in 10.0 mi SSW 3.5 mph - N/A   Overcast
8:54 AM 57.9 °F 53.1 °F 84% 30.21 in 10.0 mi WNW 5.8 mph - N/A   Overcast
9:54 AM 59.0 °F 53.1 °F 81% 30.21 in 10.0 mi Calm Calm - N/A   Overcast
10:54 AM 61.0 °F 50.0 °F 67% 30.22 in 10.0 mi West 10.4 mph - N/A   Mostly Cloudy
11:01 AM 60.8 °F 50.0 °F 68% 30.18 in 10.0 mi WNW 10.4 mph - N/A   Scattered Clouds
11:49 AM 60.8 °F 50.0 °F 68% 30.19 in 10.0 mi WNW 13.8 mph 19.6 mph N/A   Mostly Cloudy
11:54 AM 62.1 °F 50.0 °F 65% 30.23 in 10.0 mi West 12.7 mph - N/A   Mostly Cloudy
12:30 PM 62.6 °F 50.0 °F 63% 30.19 in 10.0 mi West 10.4 mph 18.4 mph N/A   Partly Cloudy
12:54 PM 63.0 °F 48.9 °F 60% 30.22 in 10.0 mi West 8.1 mph 16.1 mph N/A   Clear
1:54 PM 64.0 °F 46.9 °F 54% 30.21 in 10.0 mi WNW 10.4 mph 20.7 mph N/A   Clear
2:54 PM 63.0 °F 46.9 °F 56% 30.21 in 10.0 mi WSW 18.4 mph 23.0 mph N/A   Clear
3:54 PM 64.0 °F 46.0 °F 52% 30.19 in 10.0 mi WSW 11.5 mph 20.7 mph N/A   Clear
4:54 PM 62.1 °F 45.0 °F 53% 30.19 in 10.0 mi WSW 12.7 mph 20.7 mph N/A   Clear
5:54 PM 60.1 °F 46.9 °F 62% 30.20 in 10.0 mi WSW 10.4 mph 18.4 mph N/A   Clear
6:54 PM 59.0 °F 46.9 °F 64% 30.20 in 10.0 mi WSW 10.4 mph 17.3 mph N/A   Clear
7:54 PM 57.0 °F 48.0 °F 72% 30.21 in 10.0 mi WSW 8.1 mph 16.1 mph N/A   Mostly Cloudy
8:46 PM 55.4 °F 48.2 °F 77% 30.18 in 10.0 mi Variable 5.8 mph 19.6 mph N/A   Scattered Clouds
8:54 PM 55.0 °F 48.0 °F 77% 30.22 in 10.0 mi Variable 4.6 mph - N/A   Scattered Clouds
9:54 PM 55.0 °F 46.9 °F 74% 30.23 in 10.0 mi WSW 8.1 mph - N/A   Clear
10:54 PM 55.0 °F 46.9 °F 74% 30.23 in 10.0 mi WSW 12.7 mph 19.6 mph N/A   Clear
11:54 PM 54.0 °F 46.9 °F 77% 30.22 in 10.0 mi WSW 15.0 mph - N/A   Clear